Volver al catálogo

FENGYUN 1C DEB

ActivoPO
NORAD 30893·DEBRIS·🇨🇳 China

Lanzado May 10, 1999 desde Taiyuan Satellite Launch Center

Loading…

Próximos Pases (próximas 24 horas)

TLE

EnvejeciendoSource: Space-Track

Época: Sep 3, 2026, 06:41 UTC

1 30893U 99025AYF 26246.27849876  .00000697  00000-0  36792-3 0  9991
2 30893  98.2441 250.7818 0308324  71.3749 304.4290 13.94751674985725

Sigue FENGYUN 1C DEB en tiempo real con AllMySat

Download on the App Store